| time (UTC) | temp F | wind direction | speed knots | gust knots | rain 1hr in | rain 24hr in | rain mn in | humidity % | barometer mb |
| 20260506201110 | 51 | 250 | 2.6 | 10.4 | 0.06 | 0.39 | 0.39 | 91 | 1011.0 |
| 20260506195110 | 51 | 253 | 2.6 | 5.2 | 0.06 | 0.37 | 0.37 | 91 | 1011.0 |
| 20260506194110 | 51 | 181 | 1.7 | 5.2 | 0.06 | 0.36 | 0.36 | 91 | 1010.8 |
| 20260506193109 | 51 | 146 | 5.2 | 10.4 | 0.06 | 0.35 | 0.35 | 90 | 1010.6 |
| 20260506192109 | 51 | 200 | 5.2 | 9.6 | 0.06 | 0.34 | 0.34 | 91 | 1010.4 |
| 20260506191109 | 51 | 194 | 4.3 | 9.6 | 0.07 | 0.33 | 0.33 | 91 | 1010.4 |
| 20260506190109 | 51 | 205 | 6.1 | 10.4 | 0.08 | 0.32 | 0.32 | 90 | 1010.3 |
| 20260506185110 | 51 | 290 | 7.0 | 11.3 | 0.08 | 0.31 | 0.31 | 91 | 1010.2 |
| 20260506184109 | 51 | 287 | 6.1 | 14.8 | 0.09 | 0.30 | 0.30 | 91 | 1010.2 |
| 20260506183109 | 51 | 209 | 5.2 | 10.4 | 0.09 | 0.29 | 0.29 | 91 | 1010.2 |
| 20260506182109 | 51 | 166 | 7.0 | 12.2 | 0.09 | 0.28 | 0.28 | 91 | 1010.1 |
| 20260506181109 | 51 | 274 | 7.0 | 13.0 | 0.09 | 0.26 | 0.26 | 92 | 1010.0 |
| 20260506180109 | 51 | 217 | 7.0 | 10.4 | 0.09 | 0.24 | 0.24 | 91 | 1009.8 |
| 20260506175109 | 52 | 161 | 5.2 | 9.6 | 0.08 | 0.24 | 0.23 | 92 | 1009.7 |
| 20260506174109 | 52 | 327 | 6.1 | 12.2 | 0.08 | 0.22 | 0.21 | 91 | 1009.5 |
| 20260506173114 | 52 | 186 | 3.5 | 6.1 | 0.09 | 0.20 | 0.20 | 91 | 1009.4 |
| 20260506172114 | 52 | 215 | 3.5 | 11.3 | 0.09 | 0.20 | 0.19 | 91 | 1009.3 |
| 20260506171114 | 52 | 194 | 5.2 | 11.3 | 0.09 | 0.18 | 0.17 | 91 | 1009.2 |
| 20260506170113 | 52 | 204 | 7.8 | 12.2 | 0.08 | 0.17 | 0.16 | 91 | 1009.2 |
| 20260506165114 | 52 | 298 | 7.8 | 12.2 | 0.08 | 0.16 | 0.15 | 90 | 1009.1 |
| 20260506164113 | 52 | 175 | 4.3 | 12.2 | 0.07 | 0.14 | 0.13 | 91 | 1009.1 |
| 20260506163113 | 52 | 242 | 3.5 | 8.7 | 0.06 | 0.12 | 0.11 | 90 | 1009.1 |
| 20260506162113 | 53 | 146 | 4.3 | 10.4 | 0.06 | 0.11 | 0.10 | 90 | 1009.0 |
| 20260506161113 | 53 | 171 | 5.2 | 11.3 | 0.05 | 0.09 | 0.09 | 90 | 1009.1 |
| 20260506160113 | 53 | 97 | 6.1 | 12.2 | 0.04 | 0.09 | 0.08 | 89 | 1009.1 |
| 20260506155113 | 53 | 203 | 6.1 | 10.4 | 0.03 | 0.08 | 0.07 | 89 | 1009.0 |
| 20260506153113 | 53 | 264 | 6.1 | 12.2 | 0.02 | 0.06 | 0.06 | 88 | 1008.8 |
| 20260506151113 | 53 | 206 | 7.8 | 14.8 | 0.00 | 0.05 | 0.04 | 86 | 1008.8 |
| 20260506150112 | 53 | 197 | 6.1 | 13.0 | 0.00 | 0.05 | 0.04 | 86 | 1008.7 |
| 20260506145113 | 53 | 271 | 6.1 | 14.8 | 0.01 | 0.05 | 0.04 | 86 | 1008.7 |
| 20260506143112 | 54 | 180 | 4.3 | 12.2 | 0.01 | 0.05 | 0.04 | 86 | 1008.6 |
| 20260506142112 | 54 | 262 | 5.2 | 11.3 | 0.01 | 0.05 | 0.04 | 86 | 1008.6 |
| 20260506141112 | 54 | 168 | 8.7 | 15.6 | 0.01 | 0.05 | 0.04 | 87 | 1008.5 |
| 20260506140112 | 54 | 211 | 5.2 | 13.9 | 0.02 | 0.05 | 0.04 | 86 | 1008.4 |
| 20260506135113 | 54 | 155 | 4.3 | 11.3 | 0.01 | 0.19 | 0.03 | 87 | 1008.4 |
| 20260506134113 | 55 | 178 | 4.3 | 9.6 | 0.01 | 0.19 | 0.03 | 88 | 1008.4 |
| 20260506133113 | 54 | 275 | 5.2 | 13.0 | 0.02 | 0.19 | 0.03 | 88 | 1008.4 |
| 20260506132112 | 55 | 284 | 4.3 | 13.0 | 0.02 | 0.19 | 0.03 | 87 | 1008.3 |
| 20260506131112 | 55 | 209 | 6.1 | 13.9 | 0.02 | 0.19 | 0.03 | 86 | 1008.3 |
| 20260506130111 | 55 | 253 | 6.1 | 13.0 | 0.02 | 0.18 | 0.02 | 86 | 1008.2 |
| 20260506125111 | 55 | 247 | 7.0 | 15.6 | 0.02 | 0.18 | 0.02 | 86 | 1008.0 |
| 20260506123111 | 56 | 227 | 7.8 | 16.5 | 0.02 | 0.17 | 0.02 | 88 | 1007.6 |
| 20260506122111 | 56 | 256 | 7.8 | 15.6 | 0.02 | 0.17 | 0.02 | 87 | 1007.5 |
| 20260506121111 | 57 | 231 | 6.1 | 13.0 | 0.02 | 0.17 | 0.02 | 88 | 1007.5 |
| 20260506120111 | 57 | 282 | 6.1 | 13.9 | 0.01 | 0.17 | 0.01 | 89 | 1007.3 |
| 20260506115111 | 57 | 238 | 6.1 | 13.0 | 0.01 | 0.17 | 0.01 | 88 | 1007.3 |
| 20260506114111 | 58 | 254 | 4.3 | 11.3 | 0.01 | 0.17 | 0.01 | 87 | 1007.3 |
| 20260506113111 | 58 | 265 | 4.3 | 10.4 | 0.00 | 0.16 | 0.00 | 86 | 1007.2 |
| 20260506111111 | 58 | 299 | 5.2 | 11.3 | 0.00 | 0.16 | 0.00 | 84 | 1007.2 |
| 20260506110111 | 58 | 262 | 3.5 | 10.4 | 0.00 | 0.16 | 0.00 | 84 | 1007.2 |
| 20260506104112 | 59 | 275 | 2.6 | 11.3 | 0.00 | 0.16 | 0.00 | 81 | 1007.0 |
| 20260506103111 | 59 | 222 | 4.3 | 10.4 | 0.00 | 0.16 | 0.00 | 79 | 1006.9 |
| 20260506102111 | 59 | 235 | 2.6 | 10.4 | 0.00 | 0.16 | 0.00 | 79 | 1006.9 |
| 20260506101111 | 59 | 258 | 5.2 | 9.6 | 0.00 | 0.16 | 0.00 | 80 | 1006.8 |
| 20260506100110 | 59 | 256 | 3.5 | 7.0 | 0.00 | 0.16 | 0.00 | 80 | 1006.7 |
| 20260506095110 | 59 | 231 | 5.2 | 11.3 | 0.00 | 0.16 | 0.00 | 80 | 1006.6 |
| 20260506094110 | 59 | 206 | 5.2 | 9.6 | 0.00 | 0.16 | 0.00 | 79 | 1006.6 |
| 20260506093110 | 59 | 204 | 3.5 | 7.0 | 0.00 | 0.16 | 0.00 | 79 | 1006.7 |
| 20260506092110 | 59 | 183 | 3.5 | 6.1 | 0.00 | 0.16 | 0.00 | 79 | 1006.6 |
| 20260506091110 | 59 | 164 | 6.1 | 12.2 | 0.00 | 0.16 | 0.00 | 78 | 1006.6 |
| 20260506090110 | 59 | 288 | 4.3 | 7.0 | 0.00 | 0.16 | 0.00 | 78 | 1006.4 |
| 20260506085110 | 60 | 236 | 4.3 | 8.7 | 0.00 | 0.16 | 0.00 | 77 | 1006.4 |
| 20260506084110 | 60 | 217 | 5.2 | 11.3 | 0.00 | 0.16 | 0.00 | 77 | 1006.2 |
| 20260506083110 | 60 | 351 | 3.5 | 10.4 | 0.00 | 0.16 | 0.00 | 78 | 1006.1 |
| 20260506082110 | 60 | 348 | 4.3 | 10.4 | 0.00 | 0.16 | 0.00 | 78 | 1006.1 |
| 20260506081110 | 60 | 276 | 4.3 | 9.6 | 0.00 | 0.16 | 0.00 | 79 | 1006.1 |
| 20260506080109 | 59 | 247 | 1.7 | 8.7 | 0.00 | 0.16 | 0.00 | 80 | 1006.4 |
| 20260506072109 | 58 | 263 | 4.3 | 9.6 | 0.00 | 0.16 | 0.00 | 79 | 1006.2 |
| 20260506071109 | 58 | 207 | 4.3 | 9.6 | 0.00 | 0.16 | 0.00 | 81 | 1006.2 |
| 20260506070109 | 58 | 192 | 3.5 | 10.4 | 0.00 | 0.16 | 0.00 | 79 | 1006.2 |
| 20260506062109 | 56 | 169 | 3.5 | 8.7 | 0.00 | 0.16 | 0.00 | 83 | 1006.4 |
| 20260506061108 | 56 | 178 | 3.5 | 5.2 | 0.00 | 0.16 | 0.00 | 85 | 1006.3 |
| 20260506051108 | 53 | 222 | 3.5 | 6.1 | 0.00 | 0.16 | 0.00 | 87 | 1006.2 |
| 20260506050108 | 53 | 232 | 2.6 | 4.3 | 0.00 | 0.16 | 0.00 | 87 | 1006.5 |
| 20260506045108 | 53 | 211 | 3.5 | 5.2 | 0.00 | 0.16 | 0.00 | 87 | 1006.7 |
| 20260506044108 | 53 | 181 | 4.3 | 8.7 | 0.00 | 0.16 | 0.00 | 88 | 1006.8 |
| 20260506043108 | 53 | 263 | 0.0 | 2.6 | 0.00 | 0.16 | 0.00 | 88 | 1006.8 |
| 20260506042108 | 53 | 273 | 1.7 | 5.2 | 0.00 | 0.16 | 0.00 | 87 | 1006.7 |
| 20260506041112 | 53 | 154 | 2.6 | 10.4 | 0.00 | 0.16 | 0.00 | 87 | 1006.7 |
| 20260506035112 | 53 | 202 | 5.2 | 8.7 | 0.00 | 0.16 | 0.00 | 88 | 1007.1 |
| 20260506034112 | 52 | 197 | 0.9 | 3.5 | 0.00 | 0.16 | 0.00 | 88 | 1007.2 |
| 20260506033112 | 52 | 275 | 1.7 | 4.3 | 0.00 | 0.16 | 0.00 | 88 | 1007.1 |
| 20260506032112 | 52 | 280 | 0.9 | 3.5 | 0.00 | 0.16 | 0.00 | 88 | 1007.2 |
| 20260506031112 | 51 | 261 | 0.9 | 3.5 | 0.00 | 0.16 | 0.00 | 89 | 1007.2 |
| 20260506030112 | 50 | 262 | 1.7 | 5.2 | 0.00 | 0.16 | 0.00 | 91 | 1007.2 |
| 20260506024112 | 50 | 258 | 0.0 | 0.9 | 0.00 | 0.16 | 0.00 | 91 | 1007.3 |
| 20260506023112 | 51 | 258 | 0.0 | 0.0 | 0.00 | 0.16 | 0.00 | 91 | 1007.5 |
| 20260506022112 | 51 | 258 | 0.0 | 1.7 | 0.00 | 0.16 | 0.00 | 90 | 1007.7 |
| 20260506021112 | 52 | 248 | 0.0 | 2.6 | 0.00 | 0.16 | 0.00 | 89 | 1007.7 |
| 20260506015112 | 53 | 265 | 0.0 | 2.6 | 0.00 | 0.16 | 0.00 | 88 | 1007.7 |
| 20260506014111 | 52 | 282 | 0.9 | 2.6 | 0.00 | 0.16 | 0.00 | 88 | 1008.0 |
| 20260506013111 | 52 | 239 | 0.0 | 0.0 | 0.00 | 0.16 | 0.00 | 90 | 1008.0 |
| 20260506012111 | 51 | 235 | 0.9 | 2.6 | 0.00 | 0.16 | 0.00 | 90 | 1008.2 |
| 20260506011111 | 51 | 261 | 0.9 | 3.5 | 0.00 | 0.16 | 0.00 | 90 | 1008.2 |
| 20260506010111 | 51 | 272 | 0.9 | 3.5 | 0.00 | 0.16 | 0.00 | 91 | 1008.0 |
| 20260506005111 | 51 | 211 | 1.7 | 2.6 | 0.00 | 0.16 | 0.00 | 92 | 1008.0 |
| 20260506003111 | 51 | 242 | 2.6 | 2.6 | 0.00 | 0.16 | 0.00 | 92 | 1008.1 |
| 20260506002111 | 51 | 225 | 0.9 | 1.7 | 0.00 | 0.16 | 0.00 | 91 | 1008.2 |
| 20260506001111 | 51 | 235 | 1.7 | 2.6 | 0.00 | 0.16 | 0.00 | 91 | 1008.5 |
| 20260506000111 | 52 | 230 | 0.9 | 2.6 | 0.00 | 0.16 | 0.00 | 90 | 1008.5 |
| 20260505234111 | 52 | 275 | 0.0 | 0.0 | 0.00 | 0.16 | 0.00 | 90 | 1008.6 |
| 20260505233110 | 52 | 275 | 0.0 | 0.0 | 0.00 | 0.16 | 0.00 | 90 | 1008.9 |
| 20260505231110 | 52 | 270 | 1.7 | 2.6 | 0.00 | 0.16 | 0.00 | 89 | 1008.9 |
| 20260505230111 | 52 | 249 | 0.9 | 2.6 | 0.00 | 0.16 | 0.00 | 90 | 1008.9 |
| 20260505225110 | 52 | 258 | 1.7 | 2.6 | 0.00 | 0.16 | 0.00 | 90 | 1008.9 |
| 20260505223110 | 53 | 230 | 0.9 | 2.6 | 0.00 | 0.16 | 0.00 | 89 | 1008.9 |
| 20260505222110 | 53 | 232 | 1.7 | 3.5 | 0.00 | 0.16 | 0.00 | 89 | 1009.0 |
| 20260505221110 | 53 | 256 | 0.9 | 1.7 | 0.00 | 0.16 | 0.00 | 89 | 1009.0 |
| 20260505220110 | 53 | 256 | 0.0 | 2.6 | 0.00 | 0.16 | 0.00 | 89 | 1009.1 |
| 20260505214109 | 52 | 219 | 0.9 | 1.7 | 0.00 | 0.16 | 0.16 | 90 | 1009.0 |
| 20260505213109 | 53 | 229 | 1.7 | 3.5 | 0.00 | 0.16 | 0.16 | 89 | 1009.0 |
| 20260505211111 | 54 | 186 | 3.5 | 5.2 | 0.00 | 0.16 | 0.16 | 89 | 1009.3 |
| 20260505210109 | 54 | 211 | 2.6 | 4.3 | 0.00 | 0.16 | 0.16 | 89 | 1009.1 |
| 20260505205109 | 54 | 171 | 4.3 | 6.1 | 0.00 | 0.16 | 0.16 | 89 | 1009.4 |
| 20260505204109 | 55 | 220 | 3.5 | 6.1 | 0.00 | 0.16 | 0.16 | 89 | 1009.3 |
| 20260505203109 | 55 | 200 | 4.3 | 5.2 | 0.00 | 0.16 | 0.16 | 89 | 1009.3 |
| 20260505202109 | 55 | 211 | 2.6 | 4.3 | 0.00 | 0.16 | 0.16 | 89 | 1009.1 |